This is the latest recevied weather packets stored in our database for station/object KI4FRU. If no packets are shown the sender has not sent any weather packets the latest 10 day(s).
| Time | Temp. | Humidity | Pressure | Rain* | Wind** | Luminosity | Snow |
|---|---|---|---|---|---|---|---|
| 1777909597 | 21.67° C | 53% | 1056.4 hPa | 0 mm | - | 675 W/m² | - |
| 1777909295 | 20.56° C | 53% | 1056.3 hPa | 0 mm | - | 463 W/m² | - |
| 1777908993 | 21.67° C | 55% | 1056.5 hPa | 0 mm | - | 71 W/m² | - |
| 1777908691 | 21.11° C | 56% | 1056.5 hPa | 0 mm | - | 71 W/m² | - |
| 1777908387 | 20.56° C | 53% | 1056.6 hPa | 0 mm | - | 57 W/m² | - |
| 1777908084 | 20.56° C | 52% | 1056.7 hPa | 0 mm | - | 52 W/m² | - |
| 1777907780 | 20° C | 58% | 1056.8 hPa | 0 mm | - | 48 W/m² | - |
| 1777907474 | 20° C | 54% | 1056.9 hPa | 0 mm | - | 40 W/m² | - |
| 1777907172 | 20° C | 53% | 1056.6 hPa | 0 mm | - | 55 W/m² | - |
| 1777906869 | 19.44° C | 58% | 1056.9 hPa | 0 mm | - | 50 W/m² | - |
| 1777906566 | 18.89° C | 58% | 1056.7 hPa | 0 mm | - | 45 W/m² | - |
| 1777906261 | 18.89° C | 57% | 1056.5 hPa | 0 mm | - | 49 W/m² | - |
| 1777905958 | 18.33° C | 57% | 1056.5 hPa | 0 mm | - | 53 W/m² | - |
| 1777905655 | 17.78° C | 61% | 1056.6 hPa | 0 mm | - | 43 W/m² | - |
| 1777905352 | 17.78° C | 61% | 1056.6 hPa | 0 mm | - | 60 W/m² | - |
| 1777905050 | 17.22° C | 66% | 1056.5 hPa | 0 mm | - | 75 W/m² | - |
| 1777904747 | 17.22° C | 66% | 1056.4 hPa | 0 mm | - | 36 W/m² | - |
| 1777904444 | 16.67° C | 71% | 1056.4 hPa | 0 mm | - | 39 W/m² | - |
| 1777904140 | 16.67° C | 65% | 1056.2 hPa | 0 mm | - | 37 W/m² | - |
| 1777903837 | 16.11° C | 74% | 1056.4 hPa | 0 mm | - | 38 W/m² | - |
| 1777903534 | 15.56° C | 70% | 1056.4 hPa | 0 mm | - | 37 W/m² | - |
| 1777903231 | 15.56° C | 72% | 1056.1 hPa | 0 mm | - | 36 W/m² | - |
| 1777902926 | 15° C | 74% | 1056.1 hPa | 0 mm | - | 20 W/m² | - |
| 1777902624 | 15° C | 76% | 1056.3 hPa | 0 mm | - | 29 W/m² | - |
| 1777902321 | 15° C | 76% | 1056.7 hPa | 0 mm | - | 38 W/m² | - |
* Rain latest hour (hover to see other rain measurements)
** Current wind speed in m/s (hover to see current wind gust speed)